Regional Weather Roundup
Issued by NWS

Home | Current Version | Previous Version | Text Only | Print | Product List | Glossary On
Versions: 1 2 3 4 5 6 7 8 9 10 11 12 13 14 15 16 17 18 19 20 21 22 23 24 25 26 27 28 29 30 31 32 33 34 35 36 37 38 39 40 41 42 43 44 45 46 47 48 49 50
000
ASUS43 KDMX 311703
RWRIA

WEATHER ROUNDUP FOR IOWA
NATIONAL WEATHER SERVICE DES MOINES IA
1200 PM CDT TUE MAY 31 2016

NOTE: "FAIR" INDICATES FEW OR NO CLOUDS BELOW 12,000 FEET WITH NO
SIGNIFICANT WEATHER AND/OR OBSTRUCTIONS TO VISIBILITY.

* - THESE STATIONS ARE NOT NWS STATIONS...THUS NOT UNDER NWS
QUALITY CONTROL.  THEY ALSO DO NOT REPORT WEATHER SUCH
AS PRECIPITATION OR FOG.

IAZ001>003-012>014-020>022-031>034-043>046-311800-
   NORTHWEST IOWA

CITY           SKY/WX    TMP DP  RH WIND       PRES   REMARKS
CARROLL *      PTSUNNY   73  63  68 NW17      29.91F
CHEROKEE *     CLOUDY    64  63  94 W8        29.95S
DENISON *      CLOUDY    66  63  88 NW12      29.93S
LE MARS *      CLOUDY    66  55  68 NW12      29.97S
ORANGE CITY *  PTSUNNY   64  57  77 W10G16    29.95S
SHELDON *      CLOUDY    66  55  68 NW12      29.93S
SIOUX CITY     MOSUNNY   70  57  63 NW16G22   29.96S
SPENCER        LGT RAIN  62  58  86 W12       29.94S FOG
STORM LAKE *   DRIZZLE   63  61  94 W10       29.96S
$$

IAZ055>058-069>071-079>083-090>094-311800-
   SOUTHWEST IOWA

CITY           SKY/WX    TMP DP  RH WIND       PRES   REMARKS
ATLANTIC *     CLOUDY    72  64  78 VRB6      29.91F
AUDUBON *      HVY RAIN  66  63  88 CALM      29.93S
CLARINDA *       N/A     75  66  73 MISG      29.94F
COUNCIL BLFS * MOSUNNY   66  61  82 NW14      29.94S
CRESTON *      CLOUDY    73  63  68 S15       29.95S
HARLAN  *      CLOUDY    68  61  77 NW18      29.96S
LAMONI         PTSUNNY   73  62  68 S14       29.94S
RED OAK *      LGT RAIN  70  63  78 S7        29.93S
SHENANDOAH *   PTSUNNY   73  64  73 VRB5      29.93F
$$

IAZ047>049-059>061-072>074-084-311800-
   CENTRAL IOWA

CITY           SKY/WX    TMP DP  RH WIND       PRES   REMARKS
AMES           MOSUNNY   75  63  66 S14       29.91S
ANKENY *       CLOUDY    75  63  64 SW12      29.92S
BOONE *        PTSUNNY   73  63  68 SW13      29.90F
CHARITON *     CLOUDY    77  61  57 S16G23    29.93S
DES MOINES     CLOUDY    76  60  57 S14       29.92S
GRINNELL*      MOSUNNY   75  63  64 S7        29.94S
KNOXVILLE *    CLOUDY    77  61  57 S10G17    29.91F
MARSHALLTOWN   PTSUNNY   77  61  57 SW20G25   29.90F
NEWTON *       MOSUNNY   77  63  61 S14       29.92F
PELLA *        MOSUNNY   78  61  57 S10       29.94F
PERRY *        PTSUNNY   75  66  73 S16       29.90F
$$

IAZ004>006-015-016-023>025-035-036-311800-
   NORTH CENTRAL IOWA

CITY           SKY/WX    TMP DP  RH WIND       PRES   REMARKS
ALGONA *       CLOUDY    66  63  88 W10       29.93R
CLARION *      MOSUNNY   75  66  73 SW12      29.89F
ESTHERVILLE    RAIN      63  61  93 W10       29.93R FOG
FORT DODGE *   PTSUNNY   72  61  68 W8G17     29.91F THUNDER
MASON CITY     MOSUNNY   75  66  73 S12       29.90F
FOREST CITY *  MOSUNNY   73  63  68 SW7       29.89F
WEBSTER CITY * PTSUNNY   73  66  78 S15       29.88F
IOWA FALLS *   PTSUNNY   75  66  73 SW8       29.92S
$$

IAZ007>011-017>019-026>030-037>042-050>054-066-311800-
   NORTHEAST IOWA

CITY           SKY/WX    TMP DP  RH WIND       PRES   REMARKS
CEDAR RAPIDS   CLOUDY    77  62  59 SW12      29.93S
CHARLES CITY * MOSUNNY   75  66  73 SW12      29.91F
CLINTON *      CLOUDY    72  67  84 E9        29.97R
DECORAH *      MOSUNNY   75  63  64 S9G15     29.92S
DUBUQUE        CLOUDY    72  66  81 SE12      29.95F
MONTICELLO *   CLOUDY    79  59  50 SW10      29.94R HX  80
OELWEIN *      SUNNY     77  63  61 S14G21    29.93S
WATERLOO       MOSUNNY   77  61  57 S9        29.90F
$$

IAZ064-065-067-068-078-311800-
   EAST CENTRAL IOWA

CITY           SKY/WX    TMP DP  RH WIND       PRES   REMARKS
DAVENPORT      SUNNY     79  60  52 S8        29.96S HX  80
IOWA CITY      PTSUNNY   79  61  53 SW9       29.95S HX  80
MT. PLEASANT * CLOUDY    81  63  54 SW3       29.95F HX  82
MUSCATINE *    CLOUDY    79  61  53 W6        29.95S HX  80
QUAD CITIES    MOSUNNY   79  60  52 S8        29.95S HX  80
$$

IAZ062-063-075>077-085>089-095>099-311800-
   SOUTHEAST IOWA

CITY           SKY/WX    TMP DP  RH WIND       PRES   REMARKS
BURLINGTON     CLOUDY    79  62  56 VRB5      29.95F HX  80
FAIRFIELD *      N/A    N/A N/A N/A MISG        N/A
FORT MADISON * MOSUNNY   81  61  50 SE5       29.96F HX  81
KEOKUK *       SUNNY     79  63  57 VRB7      29.94F HX  80
OSKALOOSA *    PTSUNNY   75  59  57 S8        29.94F
OTTUMWA        MOSUNNY   76  61  59 S8        29.93F
WASHINGTON *   PTSUNNY   75 -35   1 SW6       29.96S
$$

ABBREVIATIONS USED IN REMARKS
   TC - TEMPERATURES IN CELSIUS
  WCI - WIND CHILL INDEX
   HX - HEAT INDEX
  VSB - VISIBILITY
$$





USA.gov is the U.S. government's official web portal to all federal, state and local government web resources and services.